COSMOS 1722

Satellite information

Favourite Embed

Satellite Type and Status

PAYLOADIN ORBIT

Key statistics

Satellite COSMOS 1722 at a glance.

Uptime

14366

Days in orbit

Revolutions

≈ 12.5

Per day

Orbit

LEO

Low Earth Orbit

Inclination

74.0

Latest

Satellite identification and parameters

Extended collection of information and parameters for COSMOS 1722.

Object identification

Identified? True

Debris? False

Object name: COSMOS 1722

International designator: 1986-002G

Object number (NORAD): 16455

Object ID (CCSDS): 16455

Country: COMMONWEALTH OF INDEPENDENT STATES (CIS)

Current information (Y/N): Y

RCS size: MEDIUM

Orbital parameters

Period: 114.829 minutes

Inclination: 73.9886 deg

SMA: 7825.803 km

Apoapsis: 1483.336 km

Periapsis: 1411.999 km

RAAN: 319.4319 deg

Eccentricy: 0.0045578

Argument of periapsis: 27.6398 deg

Mean anomaly: 76.6377 deg

Mean motion: 12.54034313 rev/day

Mean motion (dot): 0.00000007 rev/day2

B* drag term: 0.00014374 1/REarth

Two-line elements (TLE)

Creation date: May 10, 2025, 2:32 a.m.

Reference frame: TEME

Reference center: EARTH

Epoch: May 9, 2025, 8:22 p.m. UTC

TLE line 0: 0 COSMOS 1722

TLE line 1: 1 16455U 86002G 25129.84896074 .00000007 00000-0 14374-3 0 9991

TLE line 2: 2 16455 73.9886 319.4319 0045578 27.6398 76.6377 12.54034313800491

Live tracking on map

Real-time ground track for satellite COSMOS 1722.

In-orbit conjunctions

There are no conjunctions computed for COSMOS 1722, at the moment. Check back to stay up to date, as we update our databases every day.

Go to all conjunctions

Associated space launch

Military communications satellites

COSMOS 1722 was lifted into orbit during the mission ‘Kosmos-3M | Strela-1M 297-304’, on board a Kosmos-3M space rocket.

The launch took place on Jan. 9, 1986, 2:48 a.m. from 132/2.

For more information about the launch, click the button.

Launch to space Kosmos-3M | Strela-1M 297-304
Kosmos-3M | Strela-1M 297-304

Agency: N/A

Status: Launch Successful

Launch date: Jan. 9, 1986, 2:48 a.m. UTC

Rocket: Kosmos-3M

Launch pad: 132/2

Location: Plesetsk Cosmodrome, Russian Federation

...

Latest news about this satellite

There are no fresh news available about this satellite. Check back as we update our databases every day.


Newsletter sign-up

Weekly statistics, charts and insights to help you stay on top of the space industry.